Nashville, TN

11:07 AM CDT on July 16, 2019 (GMT -0500)
Nashville International

Weather History for KBNA - May, 2019

Change the Weather History Date:

Friday, May 3, 2019

  Actual Average Record
Temperature  
Mean Temperature 71 °F 64 °F  
Max Temperature 77 °F 75 °F 90 °F (1901)
Min Temperature 64 °F 53 °F 37 °F (2005)
Degree Days  
Heating Degree Days 0    
Month to date heating degree days 0  
Since 1 July heating degree days 3193  
Cooling Degree Days 6    
Month to date cooling degree days 25  
Year to date cooling degree days 84  
Growing Degree Days 20 (Base 50)    
Moisture  
Dew Point 63 °F    
Average Humidity 79    
Maximum Humidity 87    
Minimum Humidity 64    
Precipitation  
Precipitation 0.22 in 0.18 in 3.03 in (1979)
Month to date precipitation 0.31 0.55  
Year to date precipitation 28.19 16.35  
Sea Level Pressure  
Sea Level Pressure 29.96 in    
Wind  
Wind Speed 6 mph (WSW)    
Max Wind Speed 14 mph    
Max Gust Speed 20 mph    
Visibility 9 miles    
Events Rain , Thunderstorm    
T = Trace of Precipitation, MM = Missing Value Source: NWS Daily Summary

Daily Weather History Graph

Daily Weather History Graph

Search for Another Location

Airport or City:

Astronomy

May. 03, 2019 Rise Set
Actual Time 5:52 AM CDT 7:35 PM CDT
Civil Twilight 5:24 AM CDT 8:03 PM CDT
Nautical Twilight 4:51 AM CDT 8:36 PM CDT
Astronomical Twilight 4:15 AM CDT 9:12 PM CDT
Moon 5:27 AM CDT (5/3) 6:26 PM CDT (5/3)
Length of Visible Light 14h 39m
Length of Day
13h 43m
Waning Crescent, 2% of the Moon is Illuminated
May 3
Waning Crescent
May 4
New
May 11
First Quarter
May 18
Full
May 26
Last Quarter

Hourly Weather History & Observations

Time (CDT) Temp. Dew Point Humidity Pressure Visibility Wind Dir Wind Speed Gust Speed Precip Events Conditions
12:53 AM 66.0 °F 62.1 °F 87% 29.97 in 10.0 mi Calm Calm - 0.01 in   Mostly Cloudy
1:53 AM 64.9 °F 61.0 °F 87% 29.94 in 10.0 mi SE 5.8 mph - N/A   Scattered Clouds
2:53 AM 64.0 °F 61.0 °F 90% 29.93 in 10.0 mi East 4.6 mph - N/A   Scattered Clouds
3:45 AM 66.9 °F 61.0 °F 81% 29.97 in 10.0 mi SW 6.9 mph - N/A Thunderstorm Mostly Cloudy
3:53 AM 68.0 °F 62.1 °F 81% 29.96 in 7.0 mi SW 11.5 mph 20.7 mph 0.00 in Rain , Thunderstorm Light Thunderstorms and Rain
4:53 AM 66.0 °F 63.0 °F 90% 29.93 in 8.0 mi SSE 6.9 mph - 0.20 in Rain Light Rain
5:53 AM 66.0 °F 62.1 °F 87% 29.94 in 10.0 mi South 6.9 mph - 0.01 in   Overcast
6:53 AM 66.0 °F 62.1 °F 87% 29.96 in 10.0 mi South 8.1 mph - N/A   Overcast
7:16 AM 66.9 °F 63.0 °F 87% 29.97 in 10.0 mi SSW 4.6 mph - N/A   Overcast
7:53 AM 68.0 °F 64.0 °F 87% 29.95 in 10.0 mi SSW 5.8 mph - N/A   Mostly Cloudy
8:53 AM 69.1 °F 63.0 °F 81% 29.96 in 10.0 mi SW 9.2 mph - N/A   Overcast
9:10 AM 68.0 °F 64.0 °F 87% 29.98 in 2.5 mi WSW 9.2 mph - 0.00 in Rain Light Rain
9:20 AM 68.0 °F 64.0 °F 87% 29.99 in 7.0 mi SW 5.8 mph - 0.00 in   Overcast
9:47 AM 68.0 °F 64.4 °F 88% 29.99 in 2.5 mi SW 4.6 mph - 0.01 in   Light Drizzle
9:53 AM 68.0 °F 64.0 °F 87% 29.98 in 4.0 mi SSW 6.9 mph - 0.01 in   Light Drizzle
10:30 AM 70.0 °F 64.9 °F 84% 29.99 in 3.0 mi SW 5.8 mph - 0.00 in   Light Drizzle
10:53 AM 72.0 °F 64.9 °F 78% 29.97 in 8.0 mi SW 8.1 mph - 0.00 in   Mostly Cloudy
11:17 AM 73.0 °F 64.9 °F 76% 29.99 in 10.0 mi WSW 8.1 mph - N/A   Overcast
11:53 AM 69.1 °F 64.0 °F 84% 29.98 in 9.0 mi NW 6.9 mph - 0.00 in   Mostly Cloudy
12:26 PM 72.0 °F 64.0 °F 76% 29.98 in 10.0 mi Variable 5.8 mph - 0.00 in   Mostly Cloudy
12:53 PM 72.0 °F 64.9 °F 78% 29.97 in 10.0 mi SSW 5.8 mph - 0.00 in   Mostly Cloudy
1:36 PM 73.0 °F 64.0 °F 73% 29.98 in 10.0 mi WSW 5.8 mph - N/A   Overcast
1:43 PM 73.0 °F 64.0 °F 73% 29.98 in 10.0 mi WSW 4.6 mph - N/A   Overcast
1:53 PM 73.0 °F 64.9 °F 76% 29.97 in 10.0 mi WSW 5.8 mph - N/A   Overcast
2:53 PM 75.0 °F 62.1 °F 64% 29.97 in 10.0 mi WNW 10.4 mph - N/A   Mostly Cloudy
3:14 PM 75.0 °F 62.1 °F 64% 29.98 in 10.0 mi West 5.8 mph - N/A   Overcast
3:53 PM 73.0 °F 63.0 °F 71% 29.96 in 10.0 mi West 8.1 mph - N/A   Overcast
4:53 PM 73.9 °F 62.1 °F 66% 29.95 in 10.0 mi WNW 5.8 mph - N/A   Overcast
5:11 PM 73.9 °F 62.1 °F 66% 29.96 in 10.0 mi WNW 6.9 mph - N/A   Mostly Cloudy
5:53 PM 73.0 °F 62.1 °F 68% 29.95 in 10.0 mi West 5.8 mph - N/A   Overcast
6:53 PM 72.0 °F 62.1 °F 71% 29.94 in 10.0 mi NW 4.6 mph - N/A   Mostly Cloudy
7:53 PM 70.0 °F 62.1 °F 76% 29.95 in 10.0 mi NNW 6.9 mph - N/A   Mostly Cloudy
8:53 PM 70.0 °F 61.0 °F 73% 29.96 in 10.0 mi NNW 3.5 mph - N/A   Overcast
9:53 PM 68.0 °F 62.1 °F 81% 29.97 in 10.0 mi Calm Calm - N/A   Overcast
10:53 PM 66.9 °F 62.1 °F 84% 29.95 in 10.0 mi Calm Calm - N/A   Overcast
11:53 PM 66.0 °F 62.1 °F 87% 29.94 in 10.0 mi Calm Calm - N/A   Overcast